| time (UTC) | temp F | wind direction | speed MPH | gust MPH | rain 1hr in | rain 24hr in | rain mn in | humidity % | barometer mb |
| 20260901005005 | 78 | 159 | 0.0 | 4.0 | 0.00 | 0.00 | 0.00 | 66 | 1011.9 |
| 20260901004005 | 79 | 39 | 0.0 | 5.0 | 0.00 | 0.00 | 0.00 | 65 | 1011.9 |
| 20260901003005 | 79 | 85 | 0.0 | 3.0 | 0.00 | 0.00 | 0.00 | 65 | 1011.9 |
| 20260901001005 | 81 | 283 | 3.0 | 5.0 | 0.00 | 0.00 | 0.00 | 62 | 1011.8 |
| 20260901000006 | 81 | 329 | 0.0 | 3.0 | 0.00 | 0.00 | 0.00 | 64 | 1011.8 |
| 20260831235005 | 81 | 359 | 4.0 | 6.0 | 0.00 | 0.00 | 0.00 | 64 | 1011.8 |
| 20260831234004 | 82 | 150 | 0.0 | 5.0 | 0.00 | 0.00 | 0.00 | 63 | 1011.7 |
| 20260831233005 | 83 | 359 | 0.0 | 7.0 | 0.00 | 0.00 | 0.00 | 62 | 1011.7 |
| 20260831232004 | 83 | 3 | 0.0 | 9.0 | 0.00 | 0.00 | 0.00 | 60 | 1011.6 |
| 20260831231005 | 84 | 346 | 0.0 | 3.0 | 0.00 | 0.00 | 0.00 | 60 | 1011.6 |
| 20260831230005 | 84 | 21 | 0.0 | 4.0 | 0.00 | 0.00 | 0.00 | 58 | 1011.6 |
| 20260831225005 | 84 | 356 | 0.0 | 6.0 | 0.00 | 0.00 | 0.00 | 58 | 1011.6 |
| 20260831224005 | 84 | 297 | 3.0 | 7.0 | 0.00 | 0.00 | 0.00 | 57 | 1011.8 |
| 20260831223005 | 84 | 266 | 0.0 | 5.0 | 0.00 | 0.00 | 0.00 | 58 | 1012.0 |
| 20260831222004 | 85 | 270 | 3.0 | 7.0 | 0.00 | 0.00 | 0.00 | 57 | 1012.1 |
| 20260831221005 | 85 | 319 | 3.0 | 5.0 | 0.00 | 0.00 | 0.00 | 58 | 1012.2 |
| 20260831215005 | 85 | 295 | 0.0 | 6.0 | 0.00 | 0.00 | 0.00 | 58 | 1012.4 |
| 20260831214005 | 86 | 266 | 4.0 | 4.0 | 0.00 | 0.00 | 0.00 | 55 | 1012.5 |
| 20260831213005 | 86 | 17 | 0.0 | 5.0 | 0.00 | 0.00 | 0.00 | 56 | 1012.6 |
| 20260831211005 | 87 | 28 | 1.0 | 5.0 | 0.00 | 0.00 | 0.00 | 54 | 1012.7 |
| 20260831205004 | 87 | 60 | 2.0 | 3.0 | 0.00 | 0.00 | 0.00 | 55 | 1012.7 |
| 20260831204004 | 88 | 173 | 0.0 | 0.0 | 0.00 | 0.00 | 0.00 | 53 | 1012.8 |
| 20260831203005 | 88 | 188 | 0.0 | 0.0 | 0.00 | 0.00 | 0.00 | 54 | 1012.9 |
| 20260831183004 | 85 | 142 | 0.0 | 3.0 | 0.00 | 0.00 | 0.00 | 58 | 1013.6 |
| 20260831182003 | 84 | 196 | 0.0 | 2.0 | 0.00 | 0.00 | 0.00 | 59 | 1013.6 |
| 20260831181004 | 84 | 166 | 1.0 | 4.0 | 0.00 | 0.00 | 0.00 | 60 | 1013.6 |
| 20260831180004 | 83 | 187 | 0.0 | 4.0 | 0.00 | 0.00 | 0.00 | 62 | 1013.6 |
| 20260831175004 | 83 | 176 | 0.0 | 0.0 | 0.00 | 0.00 | 0.00 | 61 | 1013.5 |
| 20260831174003 | 82 | 193 | 0.0 | 2.0 | 0.00 | 0.00 | 0.00 | 64 | 1013.5 |
| 20260831173004 | 82 | 190 | 0.0 | 0.0 | 0.00 | 0.00 | 0.00 | 64 | 1013.5 |
| 20260831170005 | 80 | 187 | 0.0 | 2.0 | 0.00 | 0.00 | 0.00 | 67 | 1013.3 |
| 20260831165004 | 80 | 247 | 0.0 | 3.0 | 0.00 | 0.00 | 0.00 | 68 | 1013.4 |
| 20260831163004 | 78 | 203 | 0.0 | 4.0 | 0.00 | 0.00 | 0.00 | 74 | 1013.2 |
| 20260831162004 | 76 | 210 | 0.0 | 3.0 | 0.00 | 0.00 | 0.00 | 74 | 1013.1 |
| 20260831161005 | 76 | 193 | 0.0 | 1.0 | 0.00 | 0.00 | 0.00 | 77 | 1013.1 |
| 20260831160005 | 75 | 210 | 0.0 | 3.0 | 0.00 | 0.00 | 0.00 | 77 | 1013.1 |
| 20260831154004 | 74 | 206 | 0.0 | 1.0 | 0.00 | 0.00 | 0.00 | 80 | 1013.1 |
| 20260831153005 | 73 | 293 | 0.0 | 0.0 | 0.00 | 0.00 | 0.00 | 82 | 1013.0 |
| 20260831151009 | 71 | 293 | 0.0 | 0.0 | 0.00 | 0.00 | 0.00 | 86 | 1012.9 |
| 20260831150004 | 70 | 293 | 0.0 | 0.0 | 0.00 | 0.00 | 0.00 | 88 | 1012.9 |
| 20260831145004 | 69 | 293 | 0.0 | 0.0 | 0.00 | 0.00 | 0.00 | 90 | 1012.8 |
| 20260831144004 | 68 | 293 | 0.0 | 0.0 | 0.00 | 0.00 | 0.00 | 91 | 1012.8 |
| 20260831141005 | 65 | 293 | 0.0 | 0.0 | 0.00 | 0.00 | 0.00 | 91 | 1012.2 |
| 20260831140005 | 65 | 293 | 0.0 | 0.0 | 0.00 | 0.00 | 0.00 | 91 | 1012.1 |
| 20260831135005 | 65 | 293 | 0.0 | 1.0 | 0.00 | 0.00 | 0.00 | 90 | 1011.9 |
| 20260831134005 | 65 | 293 | 0.0 | 0.0 | 0.00 | 0.00 | 0.00 | 90 | 1011.9 |
| 20260831133004 | 65 | 293 | 0.0 | 0.0 | 0.00 | 0.00 | 0.00 | 90 | 1011.8 |
| 20260831131005 | 66 | 293 | 0.0 | 0.0 | 0.00 | 0.00 | 0.00 | 91 | 1011.7 |
| 20260831130006 | 66 | 293 | 0.0 | 0.0 | 0.00 | 0.00 | 0.00 | 91 | 1011.7 |
| 20260831125005 | 66 | 293 | 0.0 | 0.0 | 0.00 | 0.00 | 0.00 | 90 | 1011.6 |
| 20260831124005 | 66 | 293 | 0.0 | 0.0 | 0.00 | 0.00 | 0.00 | 90 | 1011.6 |
| 20260831123005 | 66 | 293 | 0.0 | 0.0 | 0.00 | 0.00 | 0.00 | 89 | 1011.6 |
| 20260831122005 | 66 | 293 | 0.0 | 0.0 | 0.00 | 0.00 | 0.00 | 90 | 1011.6 |
| 20260831121006 | 66 | 293 | 0.0 | 0.0 | 0.00 | 0.00 | 0.00 | 89 | 1011.7 |
| 20260831120005 | 67 | 293 | 0.0 | 0.0 | 0.00 | 0.00 | 0.00 | 88 | 1011.6 |
| 20260831115004 | 67 | 293 | 0.0 | 0.0 | 0.00 | 0.00 | 0.00 | 88 | 1011.6 |
| 20260831113004 | 67 | 293 | 0.0 | 0.0 | 0.00 | 0.00 | 0.00 | 88 | 1011.7 |
| 20260831111004 | 68 | 293 | 0.0 | 0.0 | 0.00 | 0.00 | 0.00 | 86 | 1011.6 |
| 20260831110005 | 68 | 293 | 0.0 | 0.0 | 0.00 | 0.00 | 0.00 | 87 | 1011.7 |
| 20260831105005 | 68 | 293 | 0.0 | 0.0 | 0.00 | 0.00 | 0.00 | 86 | 1011.7 |
| 20260831104004 | 68 | 293 | 0.0 | 0.0 | 0.00 | 0.00 | 0.00 | 86 | 1011.6 |
| 20260831103005 | 68 | 293 | 0.0 | 0.0 | 0.00 | 0.00 | 0.00 | 84 | 1011.7 |
| 20260831102004 | 68 | 293 | 0.0 | 0.0 | 0.00 | 0.00 | 0.00 | 84 | 1011.6 |
| 20260831100005 | 68 | 293 | 0.0 | 0.0 | 0.00 | 0.00 | 0.00 | 83 | 1011.6 |
| 20260831095004 | 69 | 293 | 0.0 | 0.0 | 0.00 | 0.00 | 0.00 | 82 | 1011.6 |
| 20260831094004 | 69 | 293 | 0.0 | 0.0 | 0.00 | 0.00 | 0.00 | 83 | 1011.6 |
| 20260831093004 | 69 | 293 | 0.0 | 0.0 | 0.00 | 0.00 | 0.00 | 82 | 1011.7 |
| 20260831091003 | 69 | 293 | 0.0 | 0.0 | 0.00 | 0.00 | 0.00 | 80 | 1011.6 |
| 20260831090004 | 69 | 293 | 0.0 | 0.0 | 0.00 | 0.00 | 0.00 | 81 | 1011.6 |
| 20260831084004 | 69 | 293 | 0.0 | 0.0 | 0.00 | 0.00 | 0.00 | 85 | 1011.5 |
| 20260831083004 | 69 | 293 | 0.0 | 0.0 | 0.00 | 0.00 | 0.00 | 84 | 1011.6 |
| 20260831080004 | 68 | 293 | 0.0 | 0.0 | 0.00 | 0.00 | 0.00 | 85 | 1011.8 |
| 20260831075003 | 69 | 293 | 0.0 | 0.0 | 0.00 | 0.00 | 0.00 | 85 | 1011.7 |
| 20260831074004 | 69 | 293 | 0.0 | 0.0 | 0.00 | 0.00 | 0.00 | 84 | 1011.7 |
| 20260831073003 | 69 | 293 | 0.0 | 0.0 | 0.00 | 0.00 | 0.00 | 83 | 1011.5 |
| 20260831070006 | 69 | 293 | 0.0 | 0.0 | 0.00 | 0.00 | 0.00 | 85 | 1011.4 |
| 20260831065005 | 69 | 293 | 0.0 | 0.0 | 0.00 | 0.00 | 0.00 | 85 | 1011.4 |
| 20260831064004 | 70 | 293 | 0.0 | 0.0 | 0.00 | 0.00 | 0.00 | 85 | 1011.4 |
| 20260831062004 | 71 | 293 | 0.0 | 0.0 | 0.00 | 0.00 | 0.00 | 86 | 1011.3 |
| 20260831061004 | 71 | 293 | 0.0 | 0.0 | 0.00 | 0.00 | 0.00 | 85 | 1011.2 |
| 20260831060005 | 71 | 293 | 0.0 | 0.0 | 0.00 | 0.00 | 0.00 | 84 | 1011.5 |
| 20260831055005 | 71 | 293 | 0.0 | 0.0 | 0.00 | 0.00 | 0.00 | 83 | 1011.3 |
| 20260831054005 | 72 | 293 | 0.0 | 0.0 | 0.00 | 0.00 | 0.00 | 83 | 1011.3 |
| 20260831053004 | 72 | 293 | 0.0 | 0.0 | 0.00 | 0.00 | 0.00 | 82 | 1011.3 |
| 20260831051004 | 72 | 293 | 0.0 | 0.0 | 0.00 | 0.00 | 0.00 | 80 | 1011.4 |
| 20260831050006 | 72 | 293 | 0.0 | 0.0 | 0.00 | 0.00 | 0.00 | 80 | 1011.4 |
| 20260831045005 | 72 | 255 | 0.0 | 0.0 | 0.00 | 0.00 | 0.00 | 81 | 1011.4 |
| 20260831044004 | 72 | 255 | 0.0 | 0.0 | 0.00 | 0.00 | 0.00 | 81 | 1011.3 |
| 20260831043005 | 72 | 259 | 0.0 | 1.0 | 0.00 | 0.00 | 0.00 | 80 | 1011.1 |
| 20260831042005 | 72 | 214 | 0.0 | 1.0 | 0.00 | 0.00 | 0.00 | 80 | 1011.1 |
| 20260831041005 | 72 | 217 | 0.0 | 0.0 | 0.00 | 0.00 | 0.00 | 80 | 1010.8 |
| 20260831040006 | 73 | 284 | 0.0 | 1.0 | 0.00 | 0.00 | 0.00 | 80 | 1010.8 |
| 20260831035005 | 73 | 285 | 0.0 | 1.0 | 0.00 | 0.00 | 0.00 | 79 | 1010.4 |
| 20260831033005 | 73 | 26 | 0.0 | 1.0 | 0.00 | 0.00 | 0.00 | 76 | 1010.2 |
| 20260831032005 | 74 | 13 | 0.0 | 1.0 | 0.00 | 0.00 | 0.00 | 73 | 1010.1 |
| 20260831031005 | 74 | 165 | 0.0 | 0.0 | 0.00 | 0.00 | 0.00 | 72 | 1010.0 |
| 20260831030005 | 74 | 281 | 0.0 | 1.0 | 0.00 | 0.00 | 0.00 | 71 | 1010.0 |
| 20260831023005 | 74 | 254 | 0.0 | 5.0 | 0.00 | 0.00 | 0.00 | 68 | 1009.9 |
| 20260831022005 | 75 | 341 | 0.0 | 2.0 | 0.00 | 0.00 | 0.00 | 68 | 1009.8 |
| 20260831020005 | 76 | 41 | 0.0 | 2.0 | 0.00 | 0.00 | 0.00 | 73 | 1009.8 |
| 20260831015005 | 76 | 345 | 1.0 | 2.0 | 0.00 | 0.00 | 0.00 | 72 | 1009.7 |
| 20260831013005 | 77 | 25 | 0.0 | 4.0 | 0.00 | 0.00 | 0.00 | 73 | 1009.7 |
| 20260831012005 | 79 | 31 | 0.0 | 3.0 | 0.00 | 0.00 | 0.00 | 71 | 1009.6 |